User: anonymous   Login
Location: Unspecified
(0.0000°N, 0.0000°E)
Time: 08:28:41
(UTC+00:00)
Language:

NOSS 7 (D) - Orbit

View from above orbital plane
View from above orbital plane
View from above satellite
View from above satellite

Ground track
Ground track

The orbit data is extracted from the following two-line orbital elements,

1 16623U 86014D   18346.71407931 0.00000650  00000-0  68828-4 0    01
2 16623  63.3015 210.7354 0908586  66.5109 293.4891 13.45691272    09
Epoch (UTC): 12 December 2018 17:08:16
Eccentricity: 0.0908586
inclination: 63.3015°
perigee height: 410 km
apogee height: 1766 km
right ascension of ascending node: 210.7354°
argument of perigee: 66.5109°
revolutions per day: 13.45691272
mean anomaly at epoch: 293.4891°
orbit number at epoch: 0

The dashed part of the orbit path shows where the satellite is in the earth's shadow,  

DLR